Regional Weather Roundup
Issued by NWS

Home | Current Version | Previous Version | Text Only | Print | Product List | Glossary Off
Versions: 1 2 3 4 5 6 7 8 9 10 11 12 13 14 15 16 17 18 19 20 21 22 23 24 25 26 27 28 29 30 31 32 33 34 35 36 37 38 39 40 41 42 43 44 45 46 47 48 49 50

000
ASUS45 KABQ 281510
RWRNM
WEATHER ROUNDUP FOR NEW MEXICO
NATIONAL WEATHER SERVICE ALBUQUERQUE NM
800 AM MST SUN DEC 28 2014

NOTE: "FAIR" MEANS FEW OR NO CLOUDS BELOW 12,000 FEET AGL WITH NO
       SIGNIFICANT WEATHER OR OBSTRUCTIONS TO VISION.

      THIS PRODUCT IS RELEASED AS TWO VERSIONS.  ONE VERSION NEAR
      THE TOP OF THE HOUR CONTAINING PRELIMINARY DATA FROM ALBUQUERQUE
      AND OTHER STATIONS.  A FINAL VERSION WITH ADDITIONAL DATA IS
      ISSUED ABOUT 10 MINUTES AFTER THE HOUR.

NMZ501-503-504-510>518-281600-
NORTHWEST PLATEAU/NORTHCENTRAL MOUNTAINS

CITY           SKY/WX    TMP DP  RH WIND       PRES   REMARKS
FARMINGTON     CLEAR      8   4  83 E6        30.20F WCI  -2
LOS ALAMOS     PTCLDY    13   7  74 CALM      30.11F
SANTA FE       PTCLDY    12   5  73 N8        30.12F WCI   0
TAOS           PTCLDY    -4  -6  92 N6        30.13S WCI -16
ANGEL FIRE     FAIR     -13 -17  79 CALM      30.04F

$$
NMZ402-403-502-505>509-281600-
WESTCENTRAL MOUNTAINS/SOUTHWEST MOUNTAINS

CITY           SKY/WX    TMP DP  RH WIND       PRES   REMARKS
GALLUP         PTCLDY    -2  -7  79 NE6       30.19F WCI -14
GRANTS         CLEAR      4   1  86 NW3       30.20S
SILVER CITY    CLEAR     23  12  63 N10       30.24R WCI  12

$$
NMZ407-409-411-412-281600-
SOUTHERN DESERTS

CITY           SKY/WX    TMP DP  RH WIND       PRES   REMARKS
LORDSBURG      FAIR      21  19  93 CALM      30.25S
DEMING         CLEAR     19  15  84 CALM      30.25S
LAS CRUCES     CLEAR     23  20  86 CALM      30.25S
HOLLOMAN AFB   PTCLDY    20  15  80 CALM      30.24S
ALAMOGORDO     FOG       18  16  93 E3        30.25S VSB<1/4
T OR C         CLEAR     21   8  57 NW5       30.22R WCI  15

$$
NMZ519>523-281600-
CENTRAL VALLEYS/CENTRAL HIGHLANDS

CITY           SKY/WX    TMP DP  RH WIND       PRES   REMARKS
ALBUQUERQUE    PTCLDY    17  10  74 SE3       30.21S
DOUBLE EAGLE   CLEAR     12   7  79 CALM      30.19F
MORIARTY ARPT  FAIR      14   8  77 CALM      30.15S
CLINES CORNERS CLEAR     12   5  73 NW20      30.03F WCI  -6
BELEN          FAIR      11   7  83 CALM      30.23S
SOCORRO        FAIR      18   8  65 W3        30.24F

$$
NMZ524>526-539-540-281600-
SOUTHCENTRAL MOUNTAINS

CITY           SKY/WX    TMP DP  RH WIND       PRES   REMARKS
RUIDOSO        PTCLDY    21   3  45 NW5       30.13F WCI  15

$$
NMZ527>531-281600-
NORTHEAST HIGHLANDS/NORTHEAST PLAINS

CITY           SKY/WX    TMP DP  RH WIND       PRES   REMARKS
LAS VEGAS      PTCLDY    16   2  54 N6        29.98S WCI   7
RATON          PTCLDY     4   0  83 NE9       29.96F WCI -10
CLAYTON        PTCLDY    24   9  52 W8        29.98S WCI  15

$$
NMZ532>537-281600-
EASTCENTRAL PLAINS

CITY           SKY/WX    TMP DP  RH WIND       PRES   REMARKS
TUCUMCARI      PTCLDY    15  11  83 NW6       30.05S WCI   6
CANNON AFB     PTCLDY    21  12  68 W15       30.07S WCI   8
CLOVIS AIRPORT PTCLDY    18  14  86 SW9       30.07S WCI   6

$$
NMZ028-029-538-281600-
SOUTHEAST PLAINS

CITY           SKY/WX    TMP DP  RH WIND       PRES   REMARKS
ROSWELL        PTCLDY    19  12  74 CALM      30.17R
ARTESIA        PTCLDY    23  21  93 CALM      30.20R
CARLSBAD       SUNNY     28  24  85 E3        30.19R
HOBBS          SUNNY     28  28 100 SW6       30.20R FOG     WCI  22


$$


USA.gov is the U.S. government's official web portal to all federal, state and local government web resources and services.